WAT1744 KMCO-MYNN

Flight info

Callsign WAT1744
Flight time 0h 48m
Altitude 33000
Route DDANY3 JIPOD DCT JUNIP DCT ZFP BR63V ZQA
Aircraft B738/M-SDE2E3FGHIRWXY/LB1

Departure

Time 2026-05-06 00:13
Airport Orlando International Airport (KMCO)

Arrival

Time 2026-05-06 01:02
Airport Lynden Pindling International Airport (MYNN)
Time Latitude Longitude Altitude Speed Heading
2026-05-05 23:47 28.42766 -81.30249 102 ft 0 kts 189°
2026-05-05 23:59 28.42779 -81.30247 102 ft 4 kts 156°
2026-05-05 23:59 28.42795 -81.30261 102 ft 3 kts 135°
2026-05-06 00:00 28.42804 -81.30270 102 ft 4 kts 236°
2026-05-06 00:00 28.42806 -81.30255 100 ft 3 kts 308°
2026-05-06 00:00 28.42823 -81.30274 100 ft 4 kts 310°
2026-05-06 00:00 28.42828 -81.30283 102 ft 0 kts 303°
2026-05-06 00:04 28.42829 -81.30286 102 ft 2 kts 303°
2026-05-06 00:04 28.42836 -81.30317 102 ft 6 kts 270°
2026-05-06 00:04 28.42817 -81.30366 101 ft 7 kts 236°
2026-05-06 00:04 28.42788 -81.30412 102 ft 7 kts 234°
2026-05-06 00:05 28.42710 -81.30467 102 ft 7 kts 185°
2026-05-06 00:05 28.42663 -81.30463 102 ft 7 kts 166°
2026-05-06 00:05 28.42615 -81.30433 102 ft 9 kts 141°
2026-05-06 00:06 28.42555 -81.30402 101 ft 11 kts 175°
2026-05-06 00:06 28.42466 -81.30401 100 ft 14 kts 180°
2026-05-06 00:06 28.42365 -81.30400 100 ft 14 kts 180°
2026-05-06 00:06 28.42286 -81.30385 100 ft 11 kts 134°
2026-05-06 00:07 28.42276 -81.30301 101 ft 11 kts 88°
2026-05-06 00:07 28.42277 -81.30216 101 ft 11 kts 90°
2026-05-06 00:07 28.42277 -81.30135 102 ft 10 kts 89°
2026-05-06 00:07 28.42277 -81.30053 102 ft 11 kts 88°
2026-05-06 00:08 28.42280 -81.29964 104 ft 12 kts 88°
2026-05-06 00:08 28.42281 -81.29862 103 ft 14 kts 90°
2026-05-06 00:08 28.42227 -81.29793 101 ft 14 kts 171°
2026-05-06 00:08 28.42121 -81.29791 101 ft 16 kts 180°
2026-05-06 00:09 28.42004 -81.29790 101 ft 18 kts 179°
2026-05-06 00:09 28.41875 -81.29789 101 ft 19 kts 180°
2026-05-06 00:09 28.41737 -81.29787 101 ft 20 kts 180°
2026-05-06 00:09 28.41598 -81.29785 101 ft 20 kts 179°
2026-05-06 00:10 28.41463 -81.29784 101 ft 19 kts 180°
2026-05-06 00:10 28.41332 -81.29784 100 ft 18 kts 180°
2026-05-06 00:10 28.41206 -81.29782 100 ft 18 kts 178°
2026-05-06 00:10 28.41084 -81.29780 100 ft 17 kts 179°
2026-05-06 00:11 28.40967 -81.29778 99 ft 17 kts 179°
2026-05-06 00:11 28.40857 -81.29775 99 ft 12 kts 166°
2026-05-06 00:11 28.40821 -81.29703 99 ft 11 kts 94°
2026-05-06 00:11 28.40820 -81.29616 96 ft 11 kts 89°
2026-05-06 00:12 28.40839 -81.29564 96 ft 6 kts 22°
2026-05-06 00:12 28.40881 -81.29560 98 ft 6 kts
2026-05-06 00:12 28.40939 -81.29559 97 ft 13 kts
2026-05-06 00:12 28.41195 -81.29561 100 ft 74 kts 359°
2026-05-06 00:13 28.41966 -81.29570 103 ft 145 kts 360°
2026-05-06 00:13 28.43146 -81.29588 422 ft 177 kts 359°
2026-05-06 00:13 28.44359 -81.29649 1446 ft 174 kts 359°
2026-05-06 00:13 28.45574 -81.29364 2159 ft 193 kts 34°
2026-05-06 00:14 28.46474 -81.28110 2460 ft 220 kts 60°
2026-05-06 00:14 28.47337 -81.26565 2811 ft 240 kts 56°
2026-05-06 00:14 28.48327 -81.24952 3182 ft 261 kts 54°
2026-05-06 00:14 28.49409 -81.23260 3932 ft 266 kts 54°
2026-05-06 00:15 28.50346 -81.21444 4611 ft 269 kts 71°
2026-05-06 00:15 28.50768 -81.19373 4967 ft 271 kts 79°
2026-05-06 00:15 28.51099 -81.17252 4985 ft 273 kts 85°
2026-05-06 00:15 28.50867 -81.15131 5074 ft 275 kts 106°
2026-05-06 00:16 28.50351 -81.13023 5748 ft 277 kts 105°
2026-05-06 00:16 28.49858 -81.10898 6582 ft 279 kts 105°
2026-05-06 00:16 28.49366 -81.08741 7256 ft 285 kts 105°
2026-05-06 00:16 28.48865 -81.06543 7945 ft 290 kts 107°
2026-05-06 00:17 28.47979 -81.04491 8585 ft 293 kts 133°
2026-05-06 00:17 28.46476 -81.02933 9318 ft 294 kts 143°
2026-05-06 00:17 28.45411 -81.01965 9790 ft 298 kts 144°
2026-05-06 00:17 28.43761 -81.00495 10364 ft 309 kts 145°
2026-05-06 00:18 28.42001 -80.98931 10523 ft 333 kts 144°
2026-05-06 00:18 28.40118 -80.97244 10675 ft 355 kts 144°
2026-05-06 00:18 28.38140 -80.95457 10957 ft 370 kts 144°
2026-05-06 00:18 28.36105 -80.93606 11457 ft 377 kts 143°
2026-05-06 00:19 28.34046 -80.91729 12023 ft 383 kts 143°
2026-05-06 00:19 28.31957 -80.89827 12597 ft 387 kts 143°
2026-05-06 00:19 28.29844 -80.87906 13213 ft 391 kts 143°
2026-05-06 00:19 28.27893 -80.85719 13746 ft 401 kts 126°
2026-05-06 00:20 28.26646 -80.82877 14289 ft 406 kts 112°
2026-05-06 00:20 28.25611 -80.79885 14860 ft 409 kts 111°
2026-05-06 00:20 28.24571 -80.76859 15418 ft 414 kts 111°
2026-05-06 00:20 28.23504 -80.73813 15969 ft 418 kts 111°
2026-05-06 00:21 28.22409 -80.70745 16520 ft 422 kts 112°
2026-05-06 00:21 28.21292 -80.67646 17079 ft 426 kts 112°
2026-05-06 00:21 28.20193 -80.64515 17626 ft 430 kts 110°
2026-05-06 00:21 28.19136 -80.61325 18162 ft 434 kts 109°
2026-05-06 00:22 28.18089 -80.58102 18635 ft 438 kts 109°
2026-05-06 00:22 28.17030 -80.54842 19070 ft 443 kts 109°
2026-05-06 00:22 28.15954 -80.51555 19464 ft 448 kts 109°
2026-05-06 00:22 28.14873 -80.48277 19840 ft 453 kts 110°
2026-05-06 00:23 28.13760 -80.44916 20254 ft 457 kts 110°
2026-05-06 00:23 28.12636 -80.41530 20676 ft 461 kts 110°
2026-05-06 00:23 28.11501 -80.38117 21077 ft 465 kts 110°
2026-05-06 00:23 28.10314 -80.34693 21458 ft 470 kts 116°
2026-05-06 00:24 28.08480 -80.31628 21804 ft 472 kts 135°
2026-05-06 00:24 28.05952 -80.29280 22225 ft 470 kts 150°
2026-05-06 00:24 28.03194 -80.27277 22629 ft 472 kts 151°
2026-05-06 00:24 28.00395 -80.25296 22937 ft 477 kts 152°
2026-05-06 00:25 27.97569 -80.23302 23290 ft 481 kts 152°
2026-05-06 00:25 27.94732 -80.21284 23648 ft 484 kts 151°
2026-05-06 00:25 27.91881 -80.19235 23960 ft 486 kts 151°
2026-05-06 00:25 27.89023 -80.17164 24268 ft 489 kts 151°
2026-05-06 00:26 27.86156 -80.15078 24581 ft 492 kts 150°
2026-05-06 00:26 27.83274 -80.12978 24874 ft 495 kts 150°
2026-05-06 00:26 27.80376 -80.10865 25164 ft 497 kts 150°
2026-05-06 00:26 27.77460 -80.08742 25466 ft 500 kts 150°
2026-05-06 00:27 27.74574 -80.06643 25759 ft 502 kts 150°
2026-05-06 00:27 27.71629 -80.04502 26054 ft 504 kts 150°
2026-05-06 00:27 27.68671 -80.02356 26315 ft 507 kts 150°
2026-05-06 00:27 27.65703 -80.00202 26598 ft 509 kts 150°
2026-05-06 00:28 27.62718 -79.98039 26875 ft 511 kts 150°
2026-05-06 00:28 27.59714 -79.95864 27141 ft 514 kts 150°
2026-05-06 00:28 27.56702 -79.93683 27407 ft 516 kts 150°
2026-05-06 00:28 27.53676 -79.91494 27673 ft 518 kts 150°
2026-05-06 00:29 27.50629 -79.89291 27939 ft 521 kts 150°
2026-05-06 00:29 27.47575 -79.87084 28193 ft 523 kts 150°
2026-05-06 00:29 27.44507 -79.84869 28436 ft 525 kts 150°
2026-05-06 00:29 27.41428 -79.82647 28680 ft 527 kts 150°
2026-05-06 00:30 27.38333 -79.80415 28917 ft 529 kts 150°
2026-05-06 00:30 27.35226 -79.78176 29168 ft 531 kts 150°
2026-05-06 00:30 27.32114 -79.75934 29444 ft 532 kts 150°
2026-05-06 00:30 27.29039 -79.73721 29744 ft 532 kts 149°
2026-05-06 00:31 27.25997 -79.71336 30079 ft 534 kts 142°
2026-05-06 00:31 27.23246 -79.68529 30394 ft 535 kts 134°
2026-05-06 00:31 27.20872 -79.65309 30665 ft 535 kts 127°
2026-05-06 00:31 27.18640 -79.61964 30920 ft 536 kts 126°
2026-05-06 00:32 27.16416 -79.58593 31155 ft 537 kts 126°
2026-05-06 00:32 27.14186 -79.55226 31417 ft 538 kts 126°
2026-05-06 00:32 27.11935 -79.51861 31695 ft 539 kts 126°
2026-05-06 00:32 27.09672 -79.48512 31976 ft 539 kts 127°
2026-05-06 00:33 27.07398 -79.45172 32257 ft 539 kts 127°
2026-05-06 00:33 27.05121 -79.41840 32644 ft 536 kts 127°
2026-05-06 00:33 27.02852 -79.38529 33000 ft 535 kts 127°
2026-05-06 00:34 26.98285 -79.31864 33065 ft 541 kts 127°
2026-05-06 00:34 26.93713 -79.25194 33054 ft 536 kts 127°
2026-05-06 00:35 26.89209 -79.18630 33068 ft 534 kts 127°
2026-05-06 00:35 26.84676 -79.12032 33064 ft 534 kts 127°
2026-05-06 00:36 26.80139 -79.05440 33076 ft 535 kts 127°
2026-05-06 00:36 26.75595 -78.98847 33062 ft 535 kts 127°
2026-05-06 00:37 26.71039 -78.92245 33055 ft 536 kts 127°
2026-05-06 00:37 26.66486 -78.85658 33051 ft 536 kts 127°
2026-05-06 00:38 26.61922 -78.79066 33051 ft 536 kts 127°
2026-05-06 00:38 26.57354 -78.72474 33056 ft 536 kts 127°
2026-05-06 00:39 26.52758 -78.65885 32587 ft 542 kts 127°
2026-05-06 00:39 26.50422 -78.62581 31916 ft 541 kts 128°
2026-05-06 00:39 26.48085 -78.59284 31237 ft 541 kts 128°
2026-05-06 00:39 26.45756 -78.55992 30516 ft 540 kts 129°
2026-05-06 00:40 26.43436 -78.52715 30063 ft 533 kts 129°
2026-05-06 00:40 26.41187 -78.49553 29495 ft 526 kts 129°
2026-05-06 00:40 26.38904 -78.46353 28674 ft 526 kts 129°
2026-05-06 00:40 26.36626 -78.43162 27822 ft 526 kts 129°
2026-05-06 00:41 26.34353 -78.39981 27114 ft 524 kts 129°
2026-05-06 00:41 26.32094 -78.36816 26521 ft 518 kts 130°
2026-05-06 00:41 26.29859 -78.33687 25919 ft 514 kts 130°
2026-05-06 00:41 26.27639 -78.30581 25307 ft 510 kts 130°
2026-05-06 00:42 26.25436 -78.27499 24686 ft 507 kts 130°
2026-05-06 00:42 26.23244 -78.24436 24083 ft 504 kts 130°
2026-05-06 00:42 26.21064 -78.21393 23456 ft 501 kts 130°
2026-05-06 00:42 26.18907 -78.18383 22973 ft 493 kts 130°
2026-05-06 00:43 26.16782 -78.15419 22361 ft 488 kts 130°
2026-05-06 00:43 26.14675 -78.12481 21767 ft 483 kts 130°
2026-05-06 00:43 26.12589 -78.09575 21184 ft 479 kts 130°
2026-05-06 00:43 26.10519 -78.06692 20601 ft 474 kts 130°
2026-05-06 00:44 26.08468 -78.03838 20009 ft 470 kts 130°
2026-05-06 00:44 26.06432 -78.01006 19411 ft 467 kts 130°
2026-05-06 00:44 26.04415 -77.98201 18823 ft 463 kts 130°
2026-05-06 00:44 26.02414 -77.95422 18221 ft 459 kts 130°
2026-05-06 00:45 26.00424 -77.92659 17518 ft 456 kts 130°
2026-05-06 00:45 25.98459 -77.89930 16932 ft 447 kts 130°
2026-05-06 00:45 25.96540 -77.87267 16345 ft 436 kts 130°
2026-05-06 00:45 25.94662 -77.84663 15791 ft 426 kts 130°
2026-05-06 00:46 25.92852 -77.82156 15273 ft 417 kts 130°
2026-05-06 00:46 25.91067 -77.79685 14987 ft 405 kts 131°
2026-05-06 00:46 25.89320 -77.77268 14482 ft 398 kts 131°
2026-05-06 00:46 25.87593 -77.74883 14007 ft 395 kts 131°
2026-05-06 00:47 25.85870 -77.72503 13437 ft 394 kts 131°
2026-05-06 00:47 25.84153 -77.70133 12900 ft 393 kts 131°
2026-05-06 00:47 25.82446 -77.67777 12362 ft 391 kts 131°
2026-05-06 00:47 25.80742 -77.65426 11837 ft 389 kts 131°
2026-05-06 00:48 25.79049 -77.63090 11319 ft 388 kts 131°
2026-05-06 00:48 25.77378 -77.60785 11085 ft 378 kts 131°
2026-05-06 00:48 25.75754 -77.58544 10908 ft 367 kts 131°
2026-05-06 00:48 25.74174 -77.56367 10750 ft 357 kts 132°
2026-05-06 00:49 25.72639 -77.54252 10601 ft 347 kts 132°
2026-05-06 00:49 25.71144 -77.52195 10450 ft 338 kts 133°
2026-05-06 00:49 25.69645 -77.50235 10306 ft 327 kts 141°
2026-05-06 00:49 25.67874 -77.48779 10189 ft 309 kts 159°
2026-05-06 00:50 25.65906 -77.48132 10094 ft 286 kts 184°
2026-05-06 00:50 25.64040 -77.48471 9994 ft 263 kts 210°
2026-05-06 00:50 25.62505 -77.49494 9783 ft 257 kts 219°
2026-05-06 00:50 25.61037 -77.50668 9538 ft 263 kts 220°
2026-05-06 00:51 25.59577 -77.51878 9297 ft 268 kts 221°
2026-05-06 00:51 25.58082 -77.53131 9047 ft 271 kts 221°
2026-05-06 00:51 25.56564 -77.54413 8769 ft 270 kts 221°
2026-05-06 00:51 25.55095 -77.55661 8403 ft 268 kts 221°
2026-05-06 00:52 25.53627 -77.56915 8052 ft 265 kts 221°
2026-05-06 00:52 25.52179 -77.58160 7709 ft 262 kts 221°
2026-05-06 00:52 25.50749 -77.59399 7336 ft 261 kts 221°
2026-05-06 00:52 25.49329 -77.60640 6980 ft 259 kts 221°
2026-05-06 00:53 25.47921 -77.61884 6621 ft 259 kts 221°
2026-05-06 00:53 25.46516 -77.63137 6268 ft 259 kts 221°
2026-05-06 00:53 25.45118 -77.64393 5901 ft 259 kts 221°
2026-05-06 00:53 25.43728 -77.65655 5527 ft 259 kts 221°
2026-05-06 00:54 25.42341 -77.66922 5167 ft 258 kts 221°
2026-05-06 00:54 25.40938 -77.68149 4882 ft 256 kts 212°
2026-05-06 00:54 25.39223 -77.68674 4240 ft 267 kts 180°
2026-05-06 00:54 25.37403 -77.68096 3722 ft 271 kts 157°
2026-05-06 00:55 25.35682 -77.67330 3425 ft 263 kts 162°
2026-05-06 00:55 25.33964 -77.66704 3095 ft 258 kts 165°
2026-05-06 00:55 25.32254 -77.66171 2755 ft 253 kts 166°
2026-05-06 00:55 25.30562 -77.65698 2415 ft 249 kts 167°
2026-05-06 00:56 25.28890 -77.65264 2086 ft 246 kts 168°
2026-05-06 00:56 25.27257 -77.64862 2018 ft 242 kts 168°
2026-05-06 00:56 25.25597 -77.64468 2000 ft 245 kts 169°
2026-05-06 00:56 25.23961 -77.64087 1972 ft 233 kts 169°
2026-05-06 00:57 25.22404 -77.63727 1966 ft 219 kts 169°
2026-05-06 00:57 25.20952 -77.63393 1976 ft 214 kts 169°
2026-05-06 00:57 25.19487 -77.63039 1994 ft 218 kts 163°
2026-05-06 00:57 25.18229 -77.62117 2009 ft 222 kts 132°
2026-05-06 00:58 25.17163 -77.60865 1999 ft 224 kts 137°
2026-05-06 00:58 25.16044 -77.59680 1991 ft 222 kts 136°
2026-05-06 00:58 25.14951 -77.58483 1983 ft 220 kts 136°
2026-05-06 00:58 25.13883 -77.57293 1996 ft 217 kts 135°
2026-05-06 00:59 25.12836 -77.56123 2008 ft 209 kts 136°
2026-05-06 00:59 25.11837 -77.55009 1851 ft 202 kts 135°
2026-05-06 00:59 25.10863 -77.53923 1610 ft 197 kts 136°
2026-05-06 00:59 25.09920 -77.52871 1355 ft 187 kts 136°
2026-05-06 01:00 25.09044 -77.51891 1139 ft 171 kts 137°
2026-05-06 01:00 25.08244 -77.50989 933 ft 159 kts 135°
2026-05-06 01:00 25.07493 -77.50117 793 ft 154 kts 135°
2026-05-06 01:00 25.06743 -77.49270 574 ft 155 kts 136°
2026-05-06 01:01 25.05979 -77.48439 326 ft 154 kts 136°
2026-05-06 01:01 25.05228 -77.47608 104 ft 152 kts 137°
2026-05-06 01:01 25.04502 -77.46808 30 ft 140 kts 137°
2026-05-06 01:01 25.03909 -77.46153 19 ft 76 kts 135°
2026-05-06 01:02 25.03672 -77.45892 18 ft 32 kts 135°
2026-05-06 01:02 25.03560 -77.45768 19 ft 21 kts 135°
2026-05-06 01:02 25.03462 -77.45656 17 ft 16 kts 121°
2026-05-06 01:02 25.03485 -77.45560 16 ft 13 kts 47°
2026-05-06 01:03 25.03536 -77.45511 16 ft 7 kts 15°
2026-05-06 01:03 25.03541 -77.45510 17 ft 0 kts
2026-05-06 01:03 25.03569 -77.45522 16 ft 9 kts 323°
2026-05-06 01:04 25.03621 -77.45579 18 ft 12 kts 314°
2026-05-06 01:04 25.03688 -77.45652 19 ft 15 kts 315°
2026-05-06 01:04 25.03768 -77.45741 17 ft 18 kts 314°
2026-05-06 01:04 25.03863 -77.45848 18 ft 21 kts 315°
2026-05-06 01:05 25.03972 -77.45968 17 ft 24 kts 315°
2026-05-06 01:05 25.04093 -77.46105 18 ft 26 kts 314°
2026-05-06 01:05 25.04226 -77.46251 17 ft 27 kts 315°
2026-05-06 01:05 25.04351 -77.46393 18 ft 25 kts 313°
2026-05-06 01:06 25.04468 -77.46524 16 ft 23 kts 316°
2026-05-06 01:06 25.04580 -77.46647 19 ft 22 kts 315°
2026-05-06 01:06 25.04690 -77.46766 18 ft 22 kts 315°
2026-05-06 01:06 25.04795 -77.46883 17 ft 21 kts 314°
2026-05-06 01:07 25.04871 -77.46957 17 ft 12 kts 347°
2026-05-06 01:07 25.04946 -77.46924 16 ft 12 kts 24°
2026-05-06 01:07 25.04992 -77.46855 16 ft 8 kts 58°
2026-05-06 01:07 25.05030 -77.46841 16 ft 5 kts 352°
2026-05-06 01:08 25.05047 -77.46845 16 ft 1 kts 349°
2026-05-06 01:08 25.05052 -77.46846 16 ft 0 kts 348°
2026-05-06 01:08 25.05053 -77.46846 16 ft 0 kts 348°